Regional Weather Roundup
Issued by NWS

Home | Current Version | Previous Version | Text Only | Print | Product List | Glossary Off
Versions: 1 2 3 4 5 6 7 8 9 10 11 12 13 14 15 16 17 18 19 20 21 22 23 24 25 26 27 28 29 30 31 32 33 34 35 36 37 38 39 40 41 42 43 44 45 46 47 48 49 50

000
ASUS43 KIND 262209
RWRIN

WEATHER ROUNDUP FOR INDIANA
NATIONAL WEATHER SERVICE INDIANAPOLIS IN
600 PM EDT THU MAY 26 2016

NOTE: "FAIR" INDICATES FEW OR NO CLOUDS BELOW 12,000 FEET WITH NO
SIGNIFICANT WEATHER AND/OR OBSTRUCTIONS TO VISIBILITY.

* - STATION DOES NOT REPORT WEATHER SUCH AS PRECIPITATION OR FOG.

+ - STATION NOT QUALITY CONTROLLED BY THE NATIONAL WEATHER SERVICE.
    USE DATA WITH CAUTION...ESPECIALLY DEWPOINT AND RELATIVE
    HUMIDITY OBSERVATIONS.

INZ001>003-010>013-019-020-262300-
NORTHWEST INDIANA

CITY           SKY/WX    TMP DP  RH WIND       PRES   REMARKS
GARY /AIRPORT/ PTSUNNY   84  68  58 SW12      29.86F
KNOX *+          N/A     81  50  34 MISG      29.89
LA PORTE +     MOSUNNY   84  61  46 SW8       29.89S
MICHIGAN CITY+ MOSUNNY   81  61  50 S7        29.87S
MONTICELLO +   MOSUNNY   81  59  46 SW12      29.90S
RENSSELAER +   CLOUDY    79  68  69 S13       29.89S
VALPARAISO     MOSUNNY   83  60  45 SW13      29.88F

$$

LMZ046-743>745-262300-
SOUTHERN LAKE MICHIGAN

STATION/POSITION TIME  TEMP    WIND        PRES    WAVE
                       AIR SEA DIR/SP/G            HT
                 (UTC) (F)     (DEG/KT/KT) (MB)    (FT)
BURNS HARBOR     2100   79     210/ 13/ 15 1011.5F
MICHIGAN CITY    2100   71     260/  4/  6   N/A
5NW MICH CITY    2200   71 62  130/  2/  4   N/A     1

$$

INZ004-005-014>016-021>024-262300-
NORTH CENTRAL INDIANA

CITY           SKY/WX    TMP DP  RH WIND       PRES   REMARKS
ELKHART        MOSUNNY   82  66  57 SW9       29.90S
GOSHEN         PTSUNNY   82  57  42 S13G21    29.90S
LOGANSPORT +   MOSUNNY   81  57  44 SW13G18   29.91F
PERU/GRISSOM   MOSUNNY   82  60  46 SW10      29.91S
ROCHESTER +    CLOUDY    82  63  51 SW10      29.91S
SOUTH BEND     MOSUNNY   80  61  52 S16       29.89S
WARSAW +       CLOUDY    81  61  50 SW8       29.91S

$$

INZ006>009-017-018-025>027-262300-
NORTHEAST INDIANA

CITY           SKY/WX    TMP DP  RH WIND       PRES   REMARKS
ANGOLA *+        N/A     82  79  89 S13       29.91R
AUBURN +       MOSUNNY   82  61  47 S7        29.92S
FORT WAYNE     CLOUDY    81  62  52 S8        29.93R
HUNTINGTON +   CLOUDY   N/A N/A N/A SW8       29.93R

$$

INZ028-029-035-036-043>045-051>053-262300-
WEST CENTRAL INDIANA

CITY           SKY/WX    TMP DP  RH WIND       PRES   REMARKS
CRAWFORDSVL +  CLOUDY    76  62  63 SW13      29.94S
GREENCASTLE +  CLOUDY    73  64  73 S6        29.95F
LAFAYETTE      MOSUNNY   78  64  61 SW10      29.90F
TERRE HAUTE    CLOUDY    75  64  68 S8        29.94F

$$

INZ030>032-037>040-046>048-054>057-064-065-262300-
CENTRAL INDIANA

CITY           SKY/WX    TMP DP  RH WIND       PRES   REMARKS
CP ATTERBURY + MOSUNNY   73  64  73 S8        29.98S
COLUMBUS       PTSUNNY   73  66  78 S8        29.99R
FISHERS *+     CLOUDY    75  68  78 S10       29.95
FRANKFORT +      N/A     82  46  28 SW12      29.94F
INDIANAPOLIS   CLOUDY    75  64  68 S10       29.94F
-EAGLE CREEK   CLOUDY    77  63  61 S8        29.94F
KOKOMO *+      MOSUNNY   82  63  51 SW14G21   29.92S
MARION +       CLOUDY    81  61  51 S13       29.94S
SHELBYVILLE    MOSUNNY   78  64  61 S14       29.96F
ZIONSVILLE +   CLOUDY    77  63  63 S10G16    29.96R

$$

INZ033-034-041-042-049-050-058-059-262300-
EAST CENTRAL INDIANA

CITY           SKY/WX    TMP DP  RH WIND       PRES   REMARKS
MUNCIE         CLOUDY    80  64  58 S12       29.96R

$$

INZ060-061-067>069-081>083-085>088-262300-
SOUTHWEST INDIANA

CITY           SKY/WX    TMP DP  RH WIND       PRES   REMARKS
EVANSVILLE     CLOUDY    71  65  81 S20G29    29.95F
HUNTINGBURG *+ CLOUDY    70  63  78 E5        30.00R
WASHINGTON +   CLOUDY    73  67  82 SE10      29.95F

$$

INZ062-063-066-070>080-084-089>092-262300-
SOUTH CENTRAL AND SOUTHEAST INDIANA

CITY           SKY/WX    TMP DP  RH WIND       PRES   REMARKS
BLOOMINGTON    CLOUDY    75  65  70 S7        29.97F
MADISON *+     CLOUDY    70  64  83 SE3       30.04R
NORTH VERNON + CLOUDY    73  73 100 CALM      30.00R
SEYMOUR +      PTSUNNY   75  64  69 S8        29.99R

$$





USA.gov is the U.S. government's official web portal to all federal, state and local government web resources and services.